sat.trackr.live / text

‹ back to catalog

ONEWEB-0221

NORAD 48789 · 2021-045Y

PAYLOAD ACTIVE UNKNOWN

§ Identity

Operator
Country
UK
Launch date
2021-05-28
Launch site
VOSTO
Launch vehicle
Mass (kg)
RCS (m²)

Purposes: comms

External: N2YO · Heavens-Above · Gunter

§ Orbital elements

Epoch: 2026-09-09T23:19:26.340096Z

Period
109.46 min
Inclination
87.8980°
Eccentricity
0.0002032
Mean motion
13.15547950 rev/d
Perigee alt
1,200.2 km
Apogee alt
1,203.3 km
Semi-major
7,579.9 km
B*
2.6753e-4
RAAN
242.2907°
Arg perigee
80.5860°
Mean anomaly
279.5500°
Rev number
25,552

§ Raw data

ONEWEB-02211 48789U 21045Y   26252.97183264  .00000114  00000+0  26753-3 0  99962 48789  87.8980 242.2907 0002032  80.5860 279.5500 13.15547950255525

JSON: /api/v1/satellites/48789 · /tle

For live sub-satellite position, see the globe view (requires WebGL).

§ Visibility from observer

Set your observer location to see the next 7 days of passes ≥ 10°. The values pass through the URL so the page stays shareable.

No JS? Fill the form by hand. The geolocation button needs JavaScript.